Flag for Norway Weather past 2 weeks in Fetsund, Norway

Now
33 °F

Fog.


Feels Like: 33 °F
Forecast: 34 / 43 °F
Wind: 1 mph from North

Location: Oslo-Blindern

Current Time: Mar 28, 2015 at 1:38:14 AM

Latest Report: Mar 28, 2015 at 1:00 AM


Visibility: 2 mi

Pressure: 29.89 "Hg

Humidity: 97%

Dew point: 33 °F

Location of FetsundLocation

Historic Weather in Fetsund — Graph

°F

Fetsund temperature yesterday

Maximum temperature yesterday: 40 °F (at 1:00 PM)
Minimum temperature yesterday: 35 °F (at 2:00 AM)
Average temperature yesterday: 37 °F

Past Weeks' High & Low Weather Summary

 TemperatureHumidityPressure
High51 °F (Mar 24, 2:00 PM)100% (Mar 20, 2:00 AM)30.89 "Hg (Mar 20, 2:00 AM)
Low25 °F (Mar 14, 7:00 AM)24% (Mar 21, 4:00 PM)29.44 "Hg (Mar 23, 3:00 PM)
Average38 °F71%30.28 "Hg
* Reported Midnight between Mar 12 and Mar 13 — Midnight between Mar 27 and Mar 28, Fetsund, Weather by CustomWeather, © 2015

Note: Actual official high and low records may vary slightly from our data, if they occured in-between our weather recording intervals... More about our weather records

Advertising

Fetsund weather history for previous 24 hours

 ConditionsComfort  
Time TempWeatherWind HumidityBarometerVisibility
12:00 AM
Sat, Mar 28
35 °FChilly.2 mph96%29.89 "HgN/A
11:00 PM
Fri, Mar 27
36 °FChilly.2 mph95%29.87 "HgN/A
9:00 PM36 °FChilly.1 mph93%29.86 "HgN/A
8:00 PM37 °FChilly.2 mph94%29.85 "HgN/A
7:00 PM38 °FOvercast.1 mph91%29.84 "Hg40 mi
6:00 PM38 °FChilly.2 mph83%29.82 "HgN/A
5:00 PM39 °FChilly.3 mph82%29.80 "HgN/A
4:00 PM39 °FOvercast.2 mph81%29.79 "Hg40 mi
3:00 PM39 °FChilly.2 mph83%29.79 "HgN/A
2:00 PM39 °FChilly.2 mph80%29.79 "HgN/A
1:00 PM40 °FLow clouds.1 mph78%29.78 "Hg37 mi
12:00 PM38 °FChilly.2 mph83%29.78 "HgN/A
11:00 AM39 °FChilly.1 mph82%29.78 "HgN/A
10:00 AM38 °FLow clouds.1 mph83%29.77 "Hg37 mi
9:00 AM38 °FChilly.1 mph82%29.76 "HgN/A
8:00 AM36 °FChilly.1 mph86%29.77 "HgN/A
7:00 AM35 °FLow clouds.2 mph89%29.76 "Hg19 mi
6:00 AM35 °FChilly.2 mph95%29.75 "HgN/A
5:00 AM35 °FChilly.2 mph96%29.74 "HgN/A
3:00 AM35 °FChilly.3 mph95%29.74 "HgN/A
2:00 AM35 °FChilly.3 mph95%29.73 "HgN/A
1:00 AM35 °FLight rain. Low clouds.2 mph93%29.74 "Hg6 mi
Weather by CustomWeather, © 2015

See weather overviewHow to use our weather pages